| time (UTC) | temp F | wind direction | speed knots | gust knots | rain 1hr in | rain 24hr in | rain mn in | humidity % | barometer mb |
| 20260831035148 | 73 | 119 | 4.3 | 6.1 | 0.00 | 0.01 | 0.01 | 53 | 1027.4 |
| 20260831034647 | 72 | 123 | 5.2 | 7.0 | 0.00 | 0.01 | 0.01 | 53 | 1027.5 |
| 20260831034146 | 71 | 119 | 5.2 | 7.0 | 0.00 | 0.01 | 0.01 | 57 | 1027.5 |
| 20260831033141 | 71 | 110 | 5.2 | 6.1 | 0.00 | 0.01 | 0.01 | 55 | 1027.7 |
| 20260831032123 | 71 | 109 | 5.2 | 6.1 | 0.00 | 0.01 | 0.01 | 57 | 1027.8 |
| 20260831031622 | 71 | 101 | 5.2 | 7.8 | 0.00 | 0.01 | 0.01 | 58 | 1027.9 |
| 20260831031118 | 71 | 104 | 5.2 | 7.0 | 0.00 | 0.01 | 0.01 | 54 | 1027.9 |
| 20260831030616 | 71 | 102 | 4.3 | 6.1 | 0.00 | 0.01 | 0.01 | 54 | 1028.0 |
| 20260831030114 | 71 | 109 | 4.3 | 6.1 | 0.00 | 0.01 | 0.01 | 56 | 1028.0 |
| 20260831025613 | 72 | 111 | 5.2 | 6.1 | 0.00 | 0.01 | 0.01 | 57 | 1028.1 |
| 20260831025110 | 72 | 113 | 4.3 | 6.1 | 0.00 | 0.01 | 0.01 | 59 | 1028.2 |
| 20260831024608 | 72 | 116 | 4.3 | 6.1 | 0.00 | 0.01 | 0.01 | 53 | 1028.3 |
| 20260831024105 | 71 | 109 | 5.2 | 6.1 | 0.00 | 0.01 | 0.01 | 58 | 1028.3 |
| 20260831023604 | 72 | 106 | 5.2 | 7.0 | 0.00 | 0.01 | 0.01 | 56 | 1028.4 |
| 20260831023103 | 71 | 113 | 4.3 | 6.1 | 0.00 | 0.01 | 0.01 | 57 | 1028.5 |
| 20260831022602 | 71 | 110 | 5.2 | 6.1 | 0.00 | 0.01 | 0.01 | 58 | 1028.5 |
| 20260831022101 | 70 | 110 | 5.2 | 6.1 | 0.00 | 0.01 | 0.01 | 62 | 1028.7 |
| 20260831021600 | 69 | 101 | 5.2 | 7.0 | 0.00 | 0.01 | 0.01 | 60 | 1028.7 |
| 20260831020555 | 68 | 98 | 4.3 | 6.1 | 0.00 | 0.01 | 0.01 | 63 | 1028.9 |
| 20260831020054 | 67 | 82 | 5.2 | 6.1 | 0.00 | 0.01 | 0.01 | 65 | 1028.9 |
| 20260831015553 | 67 | 73 | 3.5 | 6.1 | 0.00 | 0.01 | 0.01 | 64 | 1029.0 |
| 20260831014549 | 68 | 28 | 1.7 | 4.3 | 0.01 | 0.01 | 0.01 | 59 | 1029.1 |
| 20260831014048 | 68 | 15 | 2.6 | 4.3 | 0.01 | 0.01 | 0.01 | 63 | 1029.2 |
| 20260831013546 | 68 | 12 | 2.6 | 3.5 | 0.01 | 0.01 | 0.01 | 65 | 1029.3 |
| 20260831012540 | 67 | 339 | 2.6 | 3.5 | 0.01 | 0.01 | 0.01 | 63 | 1029.3 |
| 20260831012038 | 67 | 329 | 2.6 | 3.5 | 0.01 | 0.01 | 0.01 | 66 | 1029.3 |
| 20260831011537 | 66 | 326 | 2.6 | 3.5 | 0.01 | 0.01 | 0.01 | 72 | 1029.3 |
| 20260831011036 | 65 | 319 | 3.5 | 5.2 | 0.01 | 0.01 | 0.01 | 69 | 1029.4 |
| 20260831010032 | 65 | 317 | 1.7 | 3.5 | 0.01 | 0.01 | 0.01 | 69 | 1029.5 |
| 20260831005531 | 65 | 339 | 1.7 | 3.5 | 0.01 | 0.01 | 0.01 | 70 | 1029.5 |
| 20260831005029 | 64 | 316 | 2.6 | 4.3 | 0.01 | 0.01 | 0.01 | 71 | 1029.5 |
| 20260831004528 | 63 | 276 | 3.5 | 7.0 | 0.00 | 0.00 | 0.00 | 72 | 1029.5 |
| 20260831004027 | 62 | 264 | 4.3 | 6.1 | 0.00 | 0.00 | 0.00 | 72 | 1029.6 |
| 20260831003526 | 62 | 258 | 4.3 | 7.0 | 0.00 | 0.00 | 0.00 | 74 | 1029.6 |
| 20260831003025 | 62 | 264 | 4.3 | 7.0 | 0.00 | 0.00 | 0.00 | 74 | 1029.6 |
| 20260831002021 | 62 | 281 | 3.5 | 7.0 | 0.00 | 0.00 | 0.00 | 72 | 1029.6 |
| 20260831001520 | 62 | 294 | 2.6 | 6.1 | 0.00 | 0.00 | 0.00 | 73 | 1029.6 |
| 20260831001018 | 61 | 282 | 3.5 | 6.1 | 0.00 | 0.00 | 0.00 | 73 | 1029.6 |
| 20260831000517 | 62 | 293 | 3.5 | 6.1 | 0.00 | 0.00 | 0.00 | 75 | 1029.7 |
| 20260830235513 | 62 | 315 | 4.3 | 9.6 | 0.00 | 0.00 | 0.00 | 75 | 1029.7 |
| 20260830235011 | 62 | 313 | 3.5 | 7.8 | 0.00 | 0.00 | 0.00 | 75 | 1029.7 |
| 20260830234006 | 60 | 298 | 2.6 | 6.1 | 0.00 | 0.00 | 0.00 | 76 | 1029.6 |
| 20260830233505 | 61 | 313 | 2.6 | 7.0 | 0.00 | 0.00 | 0.00 | 76 | 1029.6 |
| 20260830233004 | 60 | 306 | 2.6 | 6.1 | 0.00 | 0.00 | 0.00 | 79 | 1029.6 |
| 20260830232504 | 60 | 293 | 2.6 | 6.1 | 0.00 | 0.00 | 0.00 | 79 | 1029.6 |
| 20260830232003 | 59 | 288 | 3.5 | 7.8 | 0.00 | 0.00 | 0.00 | 78 | 1029.6 |
| 20260830231501 | 59 | 266 | 4.3 | 7.8 | 0.00 | 0.00 | 0.00 | 79 | 1029.6 |
| 20260830231000 | 59 | 267 | 5.2 | 7.8 | 0.00 | 0.00 | 0.00 | 80 | 1029.6 |
| 20260830230458 | 59 | 265 | 5.2 | 8.7 | 0.00 | 0.00 | 0.00 | 81 | 1029.5 |
| 20260830225937 | 58 | 270 | 4.3 | 7.8 | 0.00 | 0.00 | 0.00 | 81 | 1029.5 |
| 20260830225436 | 58 | 266 | 4.3 | 8.7 | 0.00 | 0.00 | 0.00 | 79 | 1029.5 |
| 20260830224431 | 58 | 267 | 5.2 | 8.7 | 0.00 | 0.00 | 0.00 | 84 | 1029.4 |
| 20260830223928 | 58 | 268 | 4.3 | 7.8 | 0.00 | 0.00 | 0.00 | 86 | 1029.5 |
| 20260830223427 | 58 | 266 | 5.2 | 7.8 | 0.00 | 0.00 | 0.00 | 87 | 1029.4 |
| 20260830222421 | 57 | 279 | 4.3 | 8.7 | 0.00 | 0.00 | 0.00 | 87 | 1029.4 |
| 20260830221920 | 57 | 274 | 5.2 | 7.8 | 0.00 | 0.00 | 0.00 | 87 | 1029.4 |
| 20260830220914 | 57 | 284 | 3.5 | 7.8 | 0.00 | 0.00 | 0.00 | 88 | 1029.4 |
| 20260830220413 | 57 | 280 | 4.3 | 6.1 | 0.00 | 0.00 | 0.00 | 89 | 1029.4 |
| 20260830215911 | 57 | 294 | 4.3 | 6.1 | 0.00 | 0.00 | 0.00 | 90 | 1029.4 |
| 20260830215410 | 56 | 286 | 4.3 | 7.0 | 0.00 | 0.00 | 0.00 | 90 | 1029.3 |
| 20260830214404 | 56 | 286 | 4.3 | 6.1 | 0.00 | 0.00 | 0.00 | 91 | 1029.3 |
| 20260830212856 | 56 | 301 | 3.5 | 7.0 | 0.00 | 0.00 | 0.00 | 93 | 1029.0 |
| 20260830212355 | 56 | 308 | 3.5 | 6.1 | 0.00 | 0.00 | 0.00 | 93 | 1029.0 |
| 20260830211853 | 55 | 292 | 3.5 | 6.1 | 0.00 | 0.00 | 0.00 | 93 | 1028.9 |
| 20260830211351 | 55 | 292 | 3.5 | 6.1 | 0.00 | 0.00 | 0.00 | 94 | 1028.8 |
| 20260830210850 | 55 | 298 | 3.5 | 7.0 | 0.00 | 0.00 | 0.00 | 95 | 1028.8 |
| 20260830210349 | 55 | 308 | 4.3 | 6.1 | 0.00 | 0.00 | 0.00 | 96 | 1028.8 |
| 20260830205848 | 55 | 300 | 3.5 | 6.1 | 0.00 | 0.00 | 0.00 | 98 | 1028.7 |
| 20260830205347 | 55 | 287 | 3.5 | 7.0 | 0.00 | 0.00 | 0.00 | 98 | 1028.7 |
| 20260830204846 | 54 | 287 | 4.3 | 7.0 | 0.00 | 0.00 | 0.00 | 98 | 1028.6 |
| 20260830204345 | 54 | 298 | 3.5 | 6.1 | 0.00 | 0.00 | 0.00 | 99 | 1028.5 |
| 20260830203340 | 53 | 305 | 3.5 | 5.2 | 0.00 | 0.00 | 0.00 | 99 | 1028.4 |
| 20260830201833 | 53 | 313 | 4.3 | 6.1 | 0.00 | 0.00 | 0.00 | 100 | 1028.3 |
| 20260830201332 | 53 | 310 | 3.5 | 6.1 | 0.00 | 0.00 | 0.00 | 100 | 1028.2 |
| 20260830200831 | 53 | 317 | 3.5 | 6.1 | 0.00 | 0.00 | 0.00 | 100 | 1028.2 |
| 20260830200329 | 53 | 322 | 3.5 | 7.0 | 0.00 | 0.00 | 0.00 | 100 | 1028.2 |
| 20260830195828 | 53 | 320 | 4.3 | 7.0 | 0.00 | 0.00 | 0.00 | 100 | 1028.1 |
| 20260830195326 | 54 | 320 | 4.3 | 7.0 | 0.00 | 0.00 | 0.00 | 100 | 1028.0 |
| 20260830194322 | 54 | 313 | 4.3 | 7.0 | 0.00 | 0.00 | 0.00 | 100 | 1027.9 |
| 20260830193821 | 55 | 279 | 5.2 | 7.0 | 0.00 | 0.00 | 0.00 | 100 | 1027.9 |
| 20260830193320 | 54 | 273 | 5.2 | 7.8 | 0.00 | 0.00 | 0.00 | 100 | 1027.9 |
| 20260830192819 | 54 | 261 | 6.1 | 7.8 | 0.00 | 0.00 | 0.00 | 100 | 1027.9 |
| 20260830192318 | 54 | 259 | 6.1 | 8.7 | 0.00 | 0.00 | 0.00 | 100 | 1027.8 |
| 20260830191314 | 54 | 259 | 6.1 | 7.8 | 0.00 | 0.00 | 0.00 | 99 | 1027.8 |
| 20260830190813 | 54 | 259 | 6.1 | 7.8 | 0.00 | 0.00 | 0.00 | 99 | 1027.8 |
| 20260830190302 | 54 | 265 | 5.2 | 7.8 | 0.00 | 0.00 | 0.00 | 99 | 1027.8 |
| 20260830185801 | 54 | 265 | 6.1 | 7.8 | 0.00 | 0.00 | 0.00 | 98 | 1027.8 |
| 20260830185300 | 54 | 266 | 6.1 | 7.8 | 0.00 | 0.00 | 0.00 | 98 | 1027.8 |
| 20260830184256 | 54 | 261 | 6.1 | 7.8 | 0.00 | 0.00 | 0.00 | 96 | 1027.9 |
| 20260830183755 | 54 | 265 | 6.1 | 8.7 | 0.00 | 0.00 | 0.00 | 96 | 1027.8 |
| 20260830182751 | 54 | 267 | 6.1 | 8.7 | 0.00 | 0.00 | 0.00 | 96 | 1027.8 |
| 20260830182250 | 54 | 266 | 6.1 | 8.7 | 0.00 | 0.00 | 0.00 | 96 | 1027.8 |
| 20260830181747 | 54 | 256 | 6.1 | 8.7 | 0.00 | 0.00 | 0.00 | 96 | 1027.8 |
| 20260830181246 | 54 | 253 | 6.1 | 8.7 | 0.00 | 0.00 | 0.00 | 97 | 1027.8 |
| 20260830180745 | 54 | 254 | 6.1 | 8.7 | 0.00 | 0.00 | 0.00 | 97 | 1027.8 |
| 20260830180244 | 55 | 253 | 6.1 | 8.7 | 0.00 | 0.00 | 0.00 | 97 | 1027.8 |
| 20260830175239 | 55 | 257 | 7.0 | 8.7 | 0.00 | 0.00 | 0.00 | 96 | 1027.7 |
| 20260830174235 | 55 | 258 | 7.0 | 9.6 | 0.00 | 0.00 | 0.00 | 95 | 1027.8 |
| 20260830173231 | 55 | 262 | 6.1 | 7.0 | 0.00 | 0.00 | 0.00 | 95 | 1027.7 |
| 20260830172730 | 55 | 264 | 5.2 | 7.0 | 0.00 | 0.00 | 0.00 | 95 | 1027.7 |
| 20260830172229 | 55 | 262 | 5.2 | 7.0 | 0.00 | 0.00 | 0.00 | 95 | 1027.7 |
| 20260830171727 | 55 | 267 | 6.1 | 7.0 | 0.00 | 0.00 | 0.00 | 96 | 1027.7 |
| 20260830171226 | 55 | 258 | 6.1 | 7.0 | 0.00 | 0.00 | 0.00 | 95 | 1027.6 |
| 20260830170725 | 55 | 258 | 6.1 | 7.0 | 0.00 | 0.00 | 0.00 | 95 | 1027.6 |
| 20260830170224 | 56 | 259 | 5.2 | 6.1 | 0.00 | 0.00 | 0.00 | 94 | 1027.7 |
| 20260830165723 | 56 | 262 | 5.2 | 7.0 | 0.00 | 0.00 | 0.00 | 94 | 1027.7 |
| 20260830164719 | 56 | 275 | 4.3 | 5.2 | 0.00 | 0.00 | 0.00 | 92 | 1027.7 |
| 20260830164218 | 56 | 271 | 4.3 | 5.2 | 0.00 | 0.00 | 0.00 | 91 | 1027.6 |
| 20260830163717 | 56 | 276 | 4.3 | 5.2 | 0.00 | 0.00 | 0.00 | 90 | 1027.7 |
| 20260830163216 | 56 | 283 | 4.3 | 4.3 | 0.00 | 0.00 | 0.00 | 89 | 1027.8 |
| 20260830162714 | 56 | 278 | 4.3 | 4.3 | 0.00 | 0.00 | 0.00 | 87 | 1027.8 |
| 20260830162212 | 56 | 265 | 4.3 | 5.2 | 0.00 | 0.00 | 0.00 | 87 | 1027.8 |
| 20260830161711 | 56 | 259 | 4.3 | 4.3 | 0.00 | 0.00 | 0.00 | 87 | 1027.9 |
| 20260830160203 | 56 | 253 | 5.2 | 6.1 | 0.00 | 0.00 | 0.00 | 85 | 1028.0 |
| 20260830155702 | 56 | 251 | 5.2 | 6.1 | 0.00 | 0.00 | 0.00 | 85 | 1028.0 |
| 20260830154657 | 55 | 239 | 4.3 | 5.2 | 0.00 | 0.00 | 0.00 | 89 | 1028.0 |
| 20260830154156 | 55 | 230 | 4.3 | 4.3 | 0.00 | 0.00 | 0.00 | 91 | 1028.0 |
| 20260830152646 | 55 | 220 | 3.5 | 4.3 | 0.00 | 0.00 | 0.00 | 95 | 1028.1 |
| 20260830152145 | 55 | 220 | 3.5 | 4.3 | 0.00 | 0.00 | 0.00 | 95 | 1028.1 |
| 20260830151644 | 56 | 228 | 2.6 | 3.5 | 0.00 | 0.00 | 0.00 | 95 | 1028.2 |
| 20260830151143 | 56 | 233 | 3.5 | 4.3 | 0.00 | 0.00 | 0.00 | 95 | 1028.2 |
| 20260830150137 | 56 | 234 | 2.6 | 3.5 | 0.00 | 0.00 | 0.00 | 93 | 1028.1 |
| 20260830145636 | 57 | 257 | 2.6 | 3.5 | 0.00 | 0.00 | 0.00 | 93 | 1028.2 |
| 20260830145134 | 57 | 276 | 2.6 | 3.5 | 0.00 | 0.00 | 0.00 | 93 | 1028.1 |
| 20260830144130 | 57 | 312 | 3.5 | 4.3 | 0.00 | 0.00 | 0.00 | 93 | 1028.2 |
| 20260830143629 | 57 | 297 | 3.5 | 5.2 | 0.00 | 0.00 | 0.00 | 93 | 1028.2 |
| 20260830143128 | 57 | 302 | 3.5 | 4.3 | 0.00 | 0.00 | 0.00 | 92 | 1028.2 |
| 20260830142627 | 57 | 314 | 2.6 | 3.5 | 0.00 | 0.00 | 0.00 | 91 | 1028.2 |
| 20260830142125 | 57 | 312 | 2.6 | 3.5 | 0.00 | 0.00 | 0.00 | 90 | 1028.2 |
| 20260830141624 | 57 | 288 | 2.6 | 3.5 | 0.00 | 0.00 | 0.00 | 90 | 1028.2 |
| 20260830141122 | 57 | 295 | 3.5 | 4.3 | 0.00 | 0.00 | 0.00 | 88 | 1028.2 |
| 20260830140621 | 57 | 291 | 3.5 | 4.3 | 0.00 | 0.00 | 0.00 | 87 | 1028.3 |
| 20260830135614 | 57 | 300 | 3.5 | 4.3 | 0.00 | 0.00 | 0.00 | 89 | 1028.2 |
| 20260830135110 | 57 | 312 | 3.5 | 4.3 | 0.00 | 0.00 | 0.00 | 90 | 1028.2 |
| 20260830134600 | 57 | 324 | 3.5 | 4.3 | 0.00 | 0.00 | 0.00 | 91 | 1028.2 |
| 20260830134058 | 57 | 336 | 3.5 | 4.3 | 0.00 | 0.00 | 0.00 | 90 | 1028.2 |
| 20260830133053 | 58 | 333 | 3.5 | 5.2 | 0.00 | 0.00 | 0.00 | 91 | 1028.3 |
| 20260830132039 | 57 | 1 | 2.6 | 3.5 | 0.00 | 0.00 | 0.00 | 86 | 1028.3 |
| 20260830131530 | 58 | 355 | 1.7 | 2.6 | 0.00 | 0.00 | 0.00 | 88 | 1028.4 |
| 20260830131020 | 58 | 354 | 2.6 | 3.5 | 0.00 | 0.00 | 0.00 | 85 | 1028.4 |
| 20260830130510 | 58 | 24 | 2.6 | 3.5 | 0.00 | 0.00 | 0.00 | 84 | 1028.3 |
| 20260830130003 | 58 | 54 | 1.7 | 1.7 | 0.00 | 0.00 | 0.00 | 85 | 1028.5 |
| 20260830124940 | 58 | 98 | 1.7 | 1.7 | 0.00 | 0.00 | 0.00 | 86 | 1028.4 |
| 20260830124438 | 58 | 104 | 1.7 | 1.7 | 0.00 | 0.00 | 0.00 | 87 | 1028.5 |
| 20260830123937 | 58 | 62 | 1.7 | 2.6 | 0.00 | 0.00 | 0.00 | 85 | 1028.4 |
| 20260830123436 | 58 | 71 | 1.7 | 2.6 | 0.00 | 0.00 | 0.00 | 87 | 1028.4 |
| 20260830122934 | 57 | 15 | 3.5 | 4.3 | 0.00 | 0.00 | 0.00 | 89 | 1028.3 |
| 20260830121930 | 56 | 356 | 1.7 | 2.6 | 0.00 | 0.00 | 0.00 | 92 | 1028.3 |
| 20260830121415 | 57 | 5 | 1.7 | 2.6 | 0.00 | 0.00 | 0.00 | 92 | 1028.1 |
| 20260830120909 | 57 | 7 | 1.7 | 3.5 | 0.00 | 0.00 | 0.00 | 93 | 1028.2 |
| 20260830120358 | 56 | 353 | 2.6 | 3.5 | 0.00 | 0.00 | 0.00 | 92 | 1028.1 |
| 20260830115801 | 57 | 338 | 2.6 | 3.5 | 0.00 | 0.00 | 0.00 | 91 | 1028.2 |
| 20260830115257 | 58 | 337 | 2.6 | 3.5 | 0.00 | 0.00 | 0.00 | 91 | 1028.2 |
| 20260830114755 | 58 | 1 | 1.7 | 1.7 | 0.00 | 0.00 | 0.00 | 92 | 1028.2 |
| 20260830114253 | 57 | 349 | 1.7 | 1.7 | 0.00 | 0.00 | 0.00 | 91 | 1028.2 |
| 20260830113750 | 57 | 3 | 1.7 | 2.6 | 0.00 | 0.00 | 0.00 | 92 | 1028.2 |
| 20260830113247 | 57 | 10 | 1.7 | 2.6 | 0.00 | 0.00 | 0.00 | 91 | 1028.3 |
| 20260830112745 | 57 | 24 | 2.6 | 4.3 | 0.00 | 0.00 | 0.00 | 91 | 1028.2 |
| 20260830111235 | 56 | 21 | 2.6 | 4.3 | 0.00 | 0.00 | 0.00 | 92 | 1028.2 |
| 20260830110733 | 57 | 10 | 2.6 | 3.5 | 0.00 | 0.00 | 0.00 | 92 | 1028.2 |
| 20260830105729 | 57 | 6 | 2.6 | 3.5 | 0.00 | 0.00 | 0.00 | 91 | 1028.3 |
| 20260830105227 | 58 | 6 | 2.6 | 3.5 | 0.00 | 0.00 | 0.00 | 90 | 1028.3 |
| 20260830104726 | 58 | 15 | 2.6 | 3.5 | 0.00 | 0.00 | 0.00 | 91 | 1028.3 |
| 20260830103720 | 58 | 2 | 1.7 | 3.5 | 0.00 | 0.00 | 0.00 | 90 | 1028.3 |
| 20260830103218 | 58 | 354 | 1.7 | 2.6 | 0.00 | 0.00 | 0.00 | 89 | 1028.3 |
| 20260830102713 | 58 | 351 | 1.7 | 2.6 | 0.00 | 0.00 | 0.00 | 88 | 1028.3 |
| 20260830102209 | 59 | 348 | 2.6 | 2.6 | 0.00 | 0.00 | 0.00 | 87 | 1028.2 |
| 20260830101707 | 59 | 349 | 2.6 | 3.5 | 0.00 | 0.00 | 0.00 | 85 | 1028.2 |
| 20260830101206 | 60 | 341 | 2.6 | 3.5 | 0.00 | 0.00 | 0.00 | 83 | 1028.3 |
| 20260830100705 | 60 | 344 | 2.6 | 3.5 | 0.00 | 0.00 | 0.00 | 81 | 1028.2 |
| 20260830095658 | 60 | 57 | 3.5 | 4.3 | 0.00 | 0.00 | 0.00 | 77 | 1028.1 |
| 20260830095154 | 60 | 66 | 4.3 | 4.3 | 0.00 | 0.00 | 0.00 | 77 | 1028.1 |
| 20260830094651 | 60 | 72 | 3.5 | 4.3 | 0.00 | 0.00 | 0.00 | 77 | 1028.1 |
| 20260830094150 | 60 | 71 | 3.5 | 3.5 | 0.00 | 0.00 | 0.00 | 77 | 1028.0 |
| 20260830093646 | 60 | 73 | 3.5 | 3.5 | 0.00 | 0.00 | 0.00 | 76 | 1027.9 |
| 20260830093143 | 60 | 86 | 3.5 | 3.5 | 0.00 | 0.00 | 0.00 | 76 | 1027.9 |
| 20260830092137 | 61 | 85 | 3.5 | 3.5 | 0.00 | 0.00 | 0.00 | 75 | 1027.8 |
| 20260830091633 | 61 | 82 | 3.5 | 4.3 | 0.00 | 0.00 | 0.00 | 74 | 1027.8 |
| 20260830091132 | 61 | 79 | 3.5 | 5.2 | 0.00 | 0.00 | 0.00 | 74 | 1027.8 |
| 20260830090631 | 61 | 79 | 3.5 | 4.3 | 0.00 | 0.00 | 0.00 | 73 | 1027.7 |
| 20260830090130 | 61 | 85 | 3.5 | 4.3 | 0.00 | 0.00 | 0.00 | 72 | 1027.7 |
| 20260830085125 | 61 | 91 | 3.5 | 4.3 | 0.00 | 0.00 | 0.00 | 73 | 1027.7 |
| 20260830084118 | 59 | 94 | 3.5 | 4.3 | 0.00 | 0.00 | 0.00 | 78 | 1027.6 |
| 20260830083617 | 58 | 109 | 4.3 | 5.2 | 0.00 | 0.00 | 0.00 | 78 | 1027.6 |
| 20260830083114 | 58 | 115 | 3.5 | 4.3 | 0.00 | 0.00 | 0.00 | 77 | 1027.6 |
| 20260830082108 | 59 | 117 | 4.3 | 6.1 | 0.00 | 0.00 | 0.00 | 77 | 1027.5 |
| 20260830081606 | 59 | 114 | 4.3 | 6.1 | 0.00 | 0.00 | 0.00 | 76 | 1027.5 |
| 20260830081103 | 59 | 120 | 4.3 | 5.2 | 0.00 | 0.00 | 0.00 | 75 | 1027.5 |
| 20260830080600 | 60 | 119 | 4.3 | 5.2 | 0.00 | 0.00 | 0.00 | 73 | 1027.4 |
| 20260830075554 | 60 | 128 | 4.3 | 6.1 | 0.00 | 0.00 | 0.00 | 71 | 1027.4 |
| 20260830075052 | 60 | 127 | 4.3 | 6.1 | 0.00 | 0.00 | 0.00 | 70 | 1027.3 |
| 20260830074551 | 61 | 127 | 4.3 | 6.1 | 0.00 | 0.00 | 0.00 | 70 | 1027.2 |
| 20260830073545 | 61 | 121 | 3.5 | 4.3 | 0.00 | 0.00 | 0.00 | 67 | 1027.1 |
| 20260830073043 | 61 | 120 | 3.5 | 4.3 | 0.00 | 0.00 | 0.00 | 67 | 1027.1 |
| 20260830072540 | 62 | 117 | 4.3 | 5.2 | 0.00 | 0.00 | 0.00 | 66 | 1027.0 |
| 20260830072037 | 62 | 119 | 3.5 | 4.3 | 0.00 | 0.00 | 0.00 | 63 | 1026.9 |
| 20260830071535 | 63 | 122 | 3.5 | 5.2 | 0.00 | 0.00 | 0.00 | 60 | 1026.9 |
| 20260830071034 | 65 | 120 | 4.3 | 5.2 | 0.00 | 0.00 | 0.00 | 59 | 1027.0 |
| 20260830070532 | 65 | 113 | 4.3 | 5.2 | 0.00 | 0.00 | 0.00 | 58 | 1026.9 |
| 20260830070030 | 65 | 118 | 4.3 | 7.0 | 0.00 | 0.00 | 0.00 | 59 | 1027.0 |
| 20260830065527 | 65 | 123 | 3.5 | 5.2 | 0.00 | 0.00 | 0.00 | 56 | 1027.0 |
| 20260830065026 | 67 | 123 | 4.3 | 6.1 | 0.00 | 0.00 | 0.00 | 55 | 1027.0 |
| 20260830064525 | 67 | 118 | 4.3 | 5.2 | 0.00 | 0.00 | 0.00 | 56 | 1027.0 |
| 20260830064024 | 67 | 116 | 4.3 | 6.1 | 0.00 | 0.00 | 0.00 | 56 | 1026.9 |
| 20260830063523 | 67 | 121 | 4.3 | 6.1 | 0.00 | 0.00 | 0.00 | 55 | 1026.9 |
| 20260830062519 | 68 | 123 | 3.5 | 5.2 | 0.00 | 0.00 | 0.00 | 53 | 1026.9 |
| 20260830062018 | 68 | 122 | 4.3 | 5.2 | 0.00 | 0.00 | 0.00 | 54 | 1026.8 |
| 20260830061013 | 69 | 118 | 4.3 | 6.1 | 0.00 | 0.00 | 0.00 | 54 | 1026.8 |
| 20260830060512 | 69 | 122 | 4.3 | 7.8 | 0.00 | 0.00 | 0.00 | 53 | 1026.8 |
| 20260830055506 | 69 | 122 | 5.2 | 7.8 | 0.00 | 0.00 | 0.00 | 54 | 1026.8 |
| 20260830055004 | 69 | 121 | 5.2 | 8.7 | 0.00 | 0.00 | 0.00 | 53 | 1026.9 |
| 20260830053959 | 70 | 116 | 5.2 | 7.0 | 0.00 | 0.00 | 0.00 | 54 | 1026.8 |
| 20260830053457 | 69 | 117 | 5.2 | 7.8 | 0.00 | 0.00 | 0.00 | 52 | 1026.8 |
| 20260830052956 | 70 | 119 | 5.2 | 7.0 | 0.00 | 0.00 | 0.00 | 50 | 1026.9 |
| 20260830051951 | 67 | 118 | 4.3 | 7.0 | 0.00 | 0.00 | 0.00 | 53 | 1027.0 |
| 20260830051450 | 67 | 118 | 3.5 | 7.0 | 0.00 | 0.00 | 0.00 | 53 | 1027.1 |
| 20260830050948 | 66 | 117 | 3.5 | 7.8 | 0.00 | 0.00 | 0.00 | 54 | 1027.1 |
| 20260830050445 | 66 | 115 | 4.3 | 7.8 | 0.00 | 0.00 | 0.00 | 54 | 1027.2 |
| 20260830045941 | 67 | 113 | 3.5 | 7.0 | 0.00 | 0.00 | 0.00 | 54 | 1027.2 |
| 20260830045439 | 69 | 117 | 3.5 | 7.0 | 0.00 | 0.00 | 0.00 | 52 | 1027.2 |
| 20260830044433 | 70 | 124 | 5.2 | 7.8 | 0.00 | 0.00 | 0.00 | 54 | 1027.1 |
| 20260830043931 | 71 | 117 | 4.3 | 7.0 | 0.00 | 0.00 | 0.00 | 52 | 1027.1 |
| 20260830042925 | 70 | 118 | 5.2 | 7.0 | 0.00 | 0.00 | 0.00 | 53 | 1027.1 |
| 20260830042424 | 68 | 117 | 3.5 | 7.0 | 0.00 | 0.00 | 0.00 | 57 | 1027.1 |
| 20260830041923 | 69 | 118 | 3.5 | 7.0 | 0.00 | 0.00 | 0.00 | 54 | 1027.2 |
| 20260830040735 | 71 | 126 | 5.2 | 8.7 | 0.00 | 0.00 | 0.00 | 53 | 1027.3 |